ラーソン彗星

P/2019 K3 ( Larson )

English version
Home page
Updated on June 8, 2019

---------------------------------------------------------------------

・ プロフィール

検出日 2019年5月29日、5月31日
検出光度 21.9等、22.0等
検出者 E. Schwab (Egelsbach, Germany), G. V. Williams (Pan-STARRS1 survey)

・ 軌道要素

Epoch 2022 Mar. 2.0 TT = JDT 2459640.5
T 2022 Feb. 17.41718 TT                                 MPCW
q   4.4197574            (2000.0)            P               Q
n   0.05987738     Peri.  170.98593     +0.96486037     +0.26229019
a   6.4708426      Node   173.74093     -0.24919151     +0.93240310
e   0.3169734      Incl.    8.31059     -0.08335502     +0.24865298
P  16.46
From 226 observations 2007 Sept. 4-2019 June 3, mean residual 0".6.

・ 光度変化

        m1 = 9.0 + 5 logΔ + 10.0 log r

---------------------------------------------------------------------

軌道要素はM.P.E.C. 2019-L42に掲載されたものです。
光度グラフはComet for Windowsで作成したものです。

---------------------------------------------------------------------

Copyright(C) Seiichi Yoshida (comet@aerith.net). All rights reserved.